Location: Gerlach
(40.6516°N, 119.3568°W)
Time: 16:29:52
(UTC-07:00)

A-11 Canister half - Pass Details

Date: 27 February 2024
Orbit: 1525 x 1683 km, 47.3° (Epoch: 22 April)

Event Time Altitude Azimuth Distance (km) Brightness Sun altitude
Exits shadow 02:24:18 13° 131° (SE) 3,511 10.9 -46.2°
Drops below altitude 10° 02:24:56 10° 130° (SE) 3,714 11.1 -46.1°
Sets 02:28:00 0° 129° (SE) 4,711 11.7 -45.6°
